This is the latest recevied weather packets stored in our database for station/object WD0REW. If no packets are shown the sender has not sent any weather packets the latest 1 day(s).
| Time | Temp. | Humidity | Pressure | Rain* | Wind** | Luminosity | Snow |
|---|---|---|---|---|---|---|---|
| 1778023652 | 7.78° C | 89% | 1010.4 hPa | 0 mm | 0 m/s | 15 W/m² | - |
| 1778023350 | 7.78° C | 89% | 1010 hPa | 0 mm | 0.89 m/s, 341° | 17 W/m² | - |
| 1778023046 | 7.78° C | 90% | 1010.1 hPa | 0 mm | 0.89 m/s, 345° | 22 W/m² | - |
| 1778022745 | 7.78° C | 91% | 1009.7 hPa | 0 mm | 0.89 m/s, 2° | 35 W/m² | - |
| 1778022443 | 7.78° C | 91% | 1010.1 hPa | 0 mm | 1.34 m/s, 358° | 31 W/m² | - |
| 1778022139 | 7.78° C | 91% | 1010.3 hPa | 0 mm | 0.89 m/s, 358° | 14 W/m² | - |
| 1778021836 | 7.78° C | 90% | 1010.1 hPa | 0 mm | 1.79 m/s, 352° | 26 W/m² | - |
| 1778021533 | 7.78° C | 90% | 1010.3 hPa | 1.27 mm | 0.45 m/s, 353° | 25 W/m² | - |
| 1778021228 | 7.78° C | 89% | 1010.5 hPa | 1.27 mm | 0.89 m/s, 3° | 29 W/m² | - |
| 1778020926 | 8.33° C | 88% | 1010.5 hPa | 0 mm | 0.45 m/s, 359° | 14 W/m² | - |
| 1778020624 | 8.33° C | 88% | 1010.4 hPa | 0 mm | 1.79 m/s, 9° | 18 W/m² | - |
| 1778020319 | 8.33° C | 89% | 1010.3 hPa | 0 mm | 0.45 m/s, 317° | 18 W/m² | - |
| 1778020016 | 8.33° C | 90% | 1010.3 hPa | 0 mm | 0.45 m/s, 347° | 27 W/m² | - |
| 1778019712 | 8.89° C | 91% | 1010.2 hPa | 0 mm | 0.45 m/s, 6° | 24 W/m² | - |
| 1778019409 | 8.89° C | 90% | 1009.9 hPa | 0 mm | 0.89 m/s, 356° | 23 W/m² | - |
| 1778019106 | 8.89° C | 89% | 1009.7 hPa | 0 mm | 0.45 m/s, 355° | 30 W/m² | - |
| 1778018803 | 8.89° C | 89% | 1009.9 hPa | 0 mm | 0.45 m/s, 355° | 45 W/m² | - |
| 1778018500 | 8.89° C | 87% | 1010 hPa | 0 mm | 0.45 m/s, 353° | 46 W/m² | - |
| 1778018198 | 8.89° C | 86% | 1009.9 hPa | 0 mm | 1.79 m/s, 350° | 38 W/m² | - |
| 1778017896 | 8.89° C | 85% | 1009.9 hPa | 0 mm | 1.34 m/s, 350° | 47 W/m² | - |
| 1778017594 | 8.89° C | 84% | 1009.8 hPa | 0 mm | 0.89 m/s, 263° | 36 W/m² | - |
| 1778017290 | 9.44° C | 82% | 1009.9 hPa | 0 mm | 1.79 m/s, 357° | 46 W/m² | - |
| 1778016988 | 9.44° C | 81% | 1010.2 hPa | 0 mm | 3.58 m/s, 334° | 34 W/m² | - |
| 1778016684 | 9.44° C | 81% | 1010.1 hPa | 0 mm | 1.79 m/s, 4° | 32 W/m² | - |
| 1778016380 | 9.44° C | 81% | 1010 hPa | 0 mm | 0.89 m/s, 354° | 54 W/m² | - |
* Rain latest hour (hover to see other rain measurements)
** Current wind speed in m/s (hover to see current wind gust speed)